Showing default

IRIDIUM 130, 43073

Orbit data source: Space-Track

IRIDIUM 130, 43073 is a payload satellite owned by Iridium (US) in LEO that was launched on Sat, 23 Dec 2017 UTC via an FALCON 9 launch vehicle from the Air Force Western Test Range (AFWTR). Payloads include a variety of satellites, spacecraft, and rockets equipped with specific instruments for various scientific and technological missions. These include communications satellites like Starlink; space stations such as the ISS; scientific satellites like the Hubble; Earth observation satellites from companies like Planet Labs, Umbra, and HawkEye 360; GPS; miniature CubeSats for education and research; and military/defense satellites.

Loading next visibility...
IRIDIUM 130 details
Identifier
43073, 2017-083D
Orbit
LEO
Last TLE update12 hours ago
Origin
Flag of USIridium (US)
ManufacturerOATK SSG Gilbert
MissionOperational Commercial Communications
Bus & MotorELITEBUS, Unknown motor
Mass860 kg wet, 700 kg dry
Launch date (UTC)
2017-12-23 (7 years ago)
Launch vehicle
FALCON 9
Launch site
Air Force Western Test Range (AFWTR)
Object type
Payload
Rocket body
Debris
Shape & HBRTrap Box + 2 Pan, 9.4 m
Radar Cross Section14.423 m², Large (>1 m²)

Expand to show TLE details & history

TLE from 12 hours ago
0 IRIDIUM 130
1 43073U 17083D   24361.05869313  .00000031  00000-0  39995-5 0  9991
2 43073  86.3994 187.1280 0001812  91.7650 268.3753 14.34217848366983
Epoch: 2024-12-26T01:24Z
Definitive object data (Epoch: 2024-12-26T01:24:31.086Z)
Latitude-0.00006°
Longitude70.95494°
Altitude780.755 km
Speed7.463 km/s
True Right ascension12h 28m 30s
True Declination0° 00' 00"
Sunlit
Object was in daylight at TLE epoch
Visualization TLE readout
Latitude82.04818°
Longitude97.3654°
Altitude789.982 km
Speed7.466 km/s
Apparent Right ascension00h 32m 35s
Apparent Declination37° 03' 31"
Sunlit
Object is in daylight
Visualization observer readout
Local Sidereal Time12:52:33
Azimuth4.087° NNE
Elevation-12.889°
Doppler factor1
Orbital elements
Apogee altitude775.927 km
Perigee altitude773.335 km
Semi-major axis7,152.768 km
Eccentricity0.0001812
Inclination86.3994°
RAAN187.128°
Arg. of periapsis91.765°
True anomaly268.35454°
Mean anomaly268.3753°
Eccentric anomaly268.36492°
Mean motion3.58783 °/min
BSTAR0.0000039995
Orbital period100.34 mins
Loading maneuver chart data...
Loading historical data...
Loading historical data...
Loading historical data...
Loading historical data...
Loading historical data...
Loading historical data...
Loading historical data...

IRIDIUM 130 Visibility forecast

Observer location: undefined°, undefined

Span
Click to sort rows by Start time (UTC) header in descending order
Start Az.
Max El. time (UTC)
Max El. Az.
Max El.
End time (UTC)
End Az.
7 mins2024-12-26 23:45:52.340Z31.827° NE2024-12-26 23:48:52.340Z72.186° E21.408°2024-12-26 23:52:52.340Z127.148° SE
7 mins2024-12-27 01:26:52.340Z331.109° NNW2024-12-27 01:29:52.340Z278.688° WNW31.379°2024-12-27 01:33:52.340Z212.981° SW
8 mins2024-12-27 12:41:52.340Z155.117° SSE2024-12-27 12:45:52.340Z71.551° E36.574°2024-12-27 12:49:52.340Z15.792° NNE
|